When you browse on this site, cookies collect data to enhance your experience and personalize the content and advertising you see.
Visit our Privacy Policy to learn more. By continuing to use the site, you agree to this use of cookies and data.
  • In Germany
  • List of Countries
  • For 7 days
  • Water Temperature
  • Satellite Maps
  • Weather Map
  • Weather Widgets
  • user-avatar
    Login

    Hourly Weather Balabino-Russkiy

    Today, 19 February, Tuesday

    Time Temperature Precipitation Wind Pressure Humidity
    00:00 -7°C° 0 mm 4 mps 757 mmHg 83%
    01:00 -7°C° 0 mm 4 mps 757 mmHg 83%
    02:00 -8°C° 0 mm 4 mps 758 mmHg 82%
    03:00 -8°C° 0 mm 3 mps 758 mmHg 82%
    04:00 -8°C° 0 mm 3 mps 758 mmHg 83%
    05:00 -8°C° 0 mm 3 mps 758 mmHg 84%
    06:00 -9°C° 0 mm 3 mps 759 mmHg 85%
    07:00 -8°C° 0 mm 3 mps 760 mmHg 85%
    08:00 -8°C° 0 mm 3 mps 760 mmHg 86%
    09:00 -9°C° 0 mm 4 mps 761 mmHg 86%
    10:00 -7°C° 0 mm 3 mps 761 mmHg 83%
    11:00 -6°C° 0 mm 3 mps 761 mmHg 81%
    12:00 -5°C° 0 mm 3 mps 761 mmHg 78%
    13:00 -4°C° 0 mm 2 mps 762 mmHg 77%
    14:00 -3°C° 0 mm 2 mps 762 mmHg 76%
    15:00 -2°C° 0 mm 2 mps 762 mmHg 74%
    16:00 -1°C° 0 mm 1 mps 762 mmHg 77%
    17:00 -3°C° 0 mm 1 mps 762 mmHg 80%
    18:00 -4°C° 0 mm 1 mps 762 mmHg 83%
    19:00 -4°C° 0 mm 1 mps 762 mmHg 83%
    20:00 -5°C° 0 mm 0 mps 762 mmHg 82%
    21:00 -6°C° 0 mm 0 mps 762 mmHg 82%
    22:00 -6°C° 0 mm 1 mps 761 mmHg 81%
    23:00 -4°C° 0 mm 1 mps 761 mmHg 80%

    Tomorrow, 20 February, Wednesday

    Time Temperature Precipitation Wind Pressure Humidity
    00:00 -4°C° 0 mm 1 mps 761 mmHg 78%
    01:00 -4°C° 0 mm 1 mps 760 mmHg 78%
    02:00 -4°C° 0 mm 1 mps 760 mmHg 77%
    03:00 -6°C° 0 mm 2 mps 760 mmHg 77%
    04:00 -6°C° 0 mm 2 mps 759 mmHg 76%
    05:00 -6°C° 0 mm 2 mps 759 mmHg 75%
    06:00 -6°C° 0 mm 2 mps 759 mmHg 74%
    07:00 -5°C° 0 mm 2 mps 758 mmHg 74%
    08:00 -4°C° 0 mm 2 mps 758 mmHg 74%
    09:00 -5°C° 0 mm 3 mps 758 mmHg 74%
    10:00 -2°C° 0 mm 3 mps 757 mmHg 73%
    11:00 -1°C° 0 mm 3 mps 757 mmHg 72%
    12:00 -1°C° 0 mm 4 mps 757 mmHg 71%
    13:00 0°C° 0 mm 4 mps 756 mmHg 73%
    14:00 0°C° 0 mm 4 mps 755 mmHg 76%
    15:00 +1°C° 0 mm 4 mps 755 mmHg 78%
    16:00 0°C° 0 mm 4 mps 755 mmHg 80%
    17:00 -1°C° 0 mm 4 mps 754 mmHg 82%
    18:00 -1°C° 0 mm 4 mps 754 mmHg 83%
    19:00 -2°C° 0 mm 4 mps 754 mmHg 84%
    20:00 -2°C° 0 mm 4 mps 754 mmHg 84%
    21:00 -3°C° 0 mm 4 mps 754 mmHg 85%
    22:00 -2°C° 0 mm 4 mps 753 mmHg 85%
    23:00 -2°C° 0 mm 4 mps 753 mmHg 85%

    Day after tomorrow, 21 February, Thursday

    Time Temperature Precipitation Wind Pressure Humidity
    00:00 -2°C° 0 mm 4 mps 753 mmHg 85%
    01:00 -2°C° 0 mm 4 mps 752 mmHg 86%
    02:00 -1°C° 0 mm 4 mps 752 mmHg 88%
    03:00 -1°C° 0 mm 4 mps 752 mmHg 90%
    04:00 -1°C° 0 mm 5 mps 752 mmHg 92%
    05:00 0°C° 0 mm 5 mps 751 mmHg 94%
    06:00 0°C° 0 mm 5 mps 751 mmHg 96%
    07:00 0°C° 0.3 mm 5 mps 751 mmHg 97%
    08:00 0°C° 0.3 mm 5 mps 751 mmHg 97%
    09:00 0°C° 0.3 mm 5 mps 751 mmHg 98%
    10:00 0°C° 0.1 mm 5 mps 750 mmHg 97%
    11:00 +1°C° 0.1 mm 4 mps 750 mmHg 95%
    12:00 +1°C° 0.1 mm 4 mps 750 mmHg 93%
    13:00 +1°C° 0.1 mm 5 mps 749 mmHg 88%
    14:00 +2°C° 0.1 mm 5 mps 749 mmHg 83%
    15:00 +2°C° 0.1 mm 6 mps 749 mmHg 78%
    16:00 +1°C° 0.2 mm 6 mps 749 mmHg 79%
    17:00 -1°C° 0.2 mm 6 mps 749 mmHg 80%
    18:00 -1°C° 0.2 mm 6 mps 749 mmHg 81%
    19:00 -3°C° 0 mm 6 mps 750 mmHg 79%
    20:00 -4°C° 0 mm 6 mps 750 mmHg 77%
    21:00 -5°C° 0 mm 6 mps 751 mmHg 74%
    22:00 -5°C° 0 mm 6 mps 751 mmHg 75%
    23:00 -6°C° 0 mm 6 mps 752 mmHg 75%

    22 February, Friday

    Time Temperature Precipitation Wind Pressure Humidity
    00:00 -6°C° 0 mm 5 mps 752 mmHg 75%
    01:00 -6°C° 0 mm 5 mps 752 mmHg 74%
    02:00 -7°C° 0 mm 5 mps 752 mmHg 73%
    03:00 -7°C° 0 mm 5 mps 752 mmHg 72%
    04:00 -7°C° 0 mm 5 mps 752 mmHg 71%
    05:00 -7°C° 0 mm 5 mps 752 mmHg 71%
    06:00 -7°C° 0 mm 5 mps 752 mmHg 70%
    07:00 -7°C° 0 mm 5 mps 752 mmHg 70%
    08:00 -7°C° 0 mm 5 mps 752 mmHg 69%
    09:00 -6°C° 0 mm 5 mps 753 mmHg 69%
    10:00 -6°C° 0 mm 5 mps 753 mmHg 68%
    11:00 -5°C° 0 mm 5 mps 752 mmHg 66%
    12:00 -5°C° 0 mm 5 mps 752 mmHg 65%
    13:00 -4°C° 0.1 mm 4 mps 752 mmHg 69%
    14:00 -4°C° 0.1 mm 4 mps 752 mmHg 74%
    15:00 -4°C° 0.1 mm 3 mps 751 mmHg 78%
    16:00 -5°C° 0.5 mm 3 mps 751 mmHg 82%
    17:00 -5°C° 0.5 mm 3 mps 752 mmHg 86%
    18:00 -6°C° 0.5 mm 3 mps 752 mmHg 90%
    19:00 -7°C° 0.5 mm 5 mps 752 mmHg 89%
    20:00 -9°C° 0.5 mm 6 mps 752 mmHg 89%
    21:00 -11°C° 0.5 mm 7 mps 753 mmHg 88%
    22:00 -12°C° 0.3 mm 7 mps 753 mmHg 87%
    23:00 -12°C° 0.3 mm 6 mps 753 mmHg 86%

    23 February, Saturday

    Time Temperature Precipitation Wind Pressure Humidity
    00:00 -12°C° 0.3 mm 6 mps 754 mmHg 85%
    01:00 -14°C° 0.2 mm 6 mps 754 mmHg 84%
    02:00 -14°C° 0.2 mm 6 mps 754 mmHg 84%
    03:00 -14°C° 0.2 mm 6 mps 755 mmHg 83%
    04:00 -14°C° 0.1 mm 6 mps 755 mmHg 83%
    05:00 -14°C° 0.1 mm 6 mps 755 mmHg 83%
    06:00 -14°C° 0.1 mm 6 mps 755 mmHg 83%
    07:00 -14°C° 0.1 mm 6 mps 756 mmHg 83%
    08:00 -14°C° 0.1 mm 6 mps 756 mmHg 83%
    09:00 -14°C° 0.1 mm 6 mps 757 mmHg 82%
    10:00 -14°C° 0.1 mm 6 mps 757 mmHg 82%
    11:00 -12°C° 0.1 mm 6 mps 757 mmHg 81%
    12:00 -12°C° 0.1 mm 6 mps 758 mmHg 80%
    13:00 -11°C° 0 mm 6 mps 758 mmHg 80%
    14:00 -11°C° 0 mm 6 mps 758 mmHg 80%
    15:00 -11°C° 0 mm 6 mps 758 mmHg 80%
    16:00 -11°C° 0 mm 5 mps 758 mmHg 81%
    17:00 -12°C° 0 mm 5 mps 758 mmHg 82%
    18:00 -12°C° 0 mm 5 mps 759 mmHg 84%
    19:00 -12°C° 0 mm 5 mps 759 mmHg 84%
    20:00 -13°C° 0 mm 5 mps 759 mmHg 85%
    21:00 -12°C° 0 mm 4 mps 759 mmHg 86%
    22:00 -12°C° 0 mm 4 mps 759 mmHg 87%
    23:00 -14°C° 0 mm 4 mps 759 mmHg 88%

    24 February, Sunday

    Time Temperature Precipitation Wind Pressure Humidity
    00:00 -14°C° 0 mm 4 mps 759 mmHg 89%
    01:00 -14°C° 0 mm 4 mps 759 mmHg 89%
    02:00 -14°C° 0 mm 4 mps 759 mmHg 89%
    03:00 -14°C° 0 mm 4 mps 759 mmHg 89%
    04:00 -14°C° 0 mm 4 mps 759 mmHg 89%
    05:00 -13°C° 0 mm 3 mps 759 mmHg 89%
    06:00 -13°C° 0 mm 3 mps 759 mmHg 89%
    07:00 -13°C° 0 mm 3 mps 759 mmHg 89%
    08:00 -14°C° 0 mm 4 mps 760 mmHg 88%
    09:00 -12°C° 0 mm 4 mps 760 mmHg 88%
    10:00 -12°C° 0 mm 4 mps 760 mmHg 87%
    11:00 -10°C° 0 mm 3 mps 760 mmHg 86%
    12:00 -9°C° 0 mm 3 mps 760 mmHg 85%
    13:00 -9°C° 0 mm 3 mps 760 mmHg 85%
    14:00 -8°C° 0 mm 3 mps 760 mmHg 84%
    15:00 -8°C° 0 mm 3 mps 760 mmHg 84%
    16:00 -8°C° 0 mm 3 mps 760 mmHg 85%
    17:00 -9°C° 0 mm 3 mps 760 mmHg 87%
    18:00 -9°C° 0 mm 3 mps 760 mmHg 88%
    19:00 -9°C° 0 mm 3 mps 760 mmHg 89%
    20:00 -9°C° 0 mm 3 mps 760 mmHg 89%
    21:00 -9°C° 0 mm 3 mps 760 mmHg 90%
    22:00 -9°C° 0.1 mm 3 mps 760 mmHg 90%
    23:00 -9°C° 0.1 mm 3 mps 760 mmHg 91%
    Show more